Time,TemperatureF,DewpointF,PressureIn,WindDirection,WindDirectionDegrees,WindSpeedMPH,WindSpeedGustMPH,Humidity,HourlyPrecipIn,Conditions,Clouds,dailyrainin,SoftwareType,DateUTC
2013-02-28 00:02:00,44.8,38.4,29.62,WSW,248,2.0,2.0,78,0.00,,---,0.00,VWS V14.01,2013-02-28 05:02:00,
2013-02-28 00:07:00,44.9,38.1,29.62,West,267,1.0,6.0,77,0.00,,---,0.00,VWS V14.01,2013-02-28 05:07:00,
2013-02-28 00:12:00,45.0,38.2,29.62,SW,234,1.0,6.0,77,0.00,,---,0.00,VWS V14.01,2013-02-28 05:12:00,
2013-02-28 00:17:00,44.9,38.5,29.62,SW,221,1.0,4.0,78,0.00,,---,0.00,VWS V14.01,2013-02-28 05:17:00,
2013-02-28 00:22:00,44.9,38.5,29.62,SW,222,1.0,4.0,78,0.00,,---,0.00,VWS V14.01,2013-02-28 05:22:00,
2013-02-28 00:27:00,44.8,38.4,29.62,WSW,238,3.0,4.0,78,0.00,,---,0.00,VWS V14.01,2013-02-28 05:27:00,
2013-02-28 00:32:00,44.8,38.4,29.63,SW,231,0.0,2.0,78,0.00,,---,0.00,VWS V14.01,2013-02-28 05:32:00,
2013-02-28 00:37:00,44.8,38.4,29.62,WSW,250,0.0,3.0,78,0.00,,---,0.00,VWS V14.01,2013-02-28 05:37:00,
2013-02-28 00:42:00,44.8,38.4,29.62,SW,226,0.0,3.0,78,0.00,,---,0.00,VWS V14.01,2013-02-28 05:42:00,
2013-02-28 00:47:00,44.7,38.3,29.62,SSW,205,1.0,3.0,78,0.00,,---,0.00,VWS V14.01,2013-02-28 05:47:00,
2013-02-28 00:52:00,44.7,38.3,29.62,WSW,249,2.0,3.0,78,0.00,,---,0.00,VWS V14.01,2013-02-28 05:52:00,
2013-02-28 00:57:00,44.9,38.5,29.62,WSW,238,1.0,4.0,78,0.00,,---,0.00,VWS V14.01,2013-02-28 05:57:00,
2013-02-28 01:02:00,45.0,38.6,29.62,WSW,253,3.0,4.0,78,0.00,,---,0.00,VWS V14.01,2013-02-28 06:02:00,
2013-02-28 01:07:00,45.1,38.3,29.62,WNW,294,0.0,4.0,77,0.00,,---,0.00,VWS V14.01,2013-02-28 06:07:00,
2013-02-28 01:12:00,45.2,38.4,29.62,West,277,1.0,4.0,77,0.00,,---,0.00,VWS V14.01,2013-02-28 06:12:00,
2013-02-28 01:17:00,45.2,38.1,29.62,WSW,240,2.0,5.0,76,0.00,,---,0.00,VWS V14.01,2013-02-28 06:17:00,
2013-02-28 01:22:00,45.2,38.4,29.62,SW,235,1.0,5.0,77,0.00,,---,0.00,VWS V14.01,2013-02-28 06:22:00,
2013-02-28 01:27:00,45.1,38.3,29.62,SSW,193,0.0,5.0,77,0.00,,---,0.00,VWS V14.01,2013-02-28 06:27:00,
2013-02-28 01:32:00,45.0,38.2,29.62,SW,215,1.0,2.0,77,0.00,,---,0.00,VWS V14.01,2013-02-28 06:32:00,
2013-02-28 01:37:00,44.9,38.5,29.62,SW,229,1.0,3.0,78,0.00,,---,0.00,VWS V14.01,2013-02-28 06:37:00,
2013-02-28 01:42:00,44.8,38.4,29.62,SW,225,1.0,3.0,78,0.00,,---,0.00,VWS V14.01,2013-02-28 06:42:00,
2013-02-28 01:47:00,44.7,38.3,29.62,SSE,155,0.0,3.0,78,0.00,,---,0.00,VWS V14.01,2013-02-28 06:47:00,
2013-02-28 01:52:00,44.4,38.3,29.61,SSW,208,1.0,3.0,79,0.00,,---,0.00,VWS V14.01,2013-02-28 06:52:00,
2013-02-28 01:57:00,44.3,38.2,29.61,SSW,195,0.0,3.0,79,0.00,,---,0.00,VWS V14.01,2013-02-28 06:57:00,
2013-02-28 02:02:00,44.3,38.2,29.62,SSW,193,1.0,2.0,79,0.00,,---,0.00,VWS V14.01,2013-02-28 07:02:00,
2013-02-28 02:07:00,44.4,38.3,29.62,SSW,210,1.0,4.0,79,0.00,,---,0.00,VWS V14.01,2013-02-28 07:07:00,
2013-02-28 02:12:00,44.6,38.5,29.62,WSW,248,1.0,4.0,79,0.00,,---,0.00,VWS V14.01,2013-02-28 07:12:00,
2013-02-28 02:17:00,44.8,38.7,29.61,SW,235,0.0,2.0,79,0.00,,---,0.00,VWS V14.01,2013-02-28 07:17:00,
2013-02-28 02:22:00,44.8,38.7,29.61,WSW,242,1.0,2.0,79,0.00,,---,0.00,VWS V14.01,2013-02-28 07:22:00,
2013-02-28 02:27:00,44.8,38.7,29.61,SW,233,1.0,2.0,79,0.00,,---,0.00,VWS V14.01,2013-02-28 07:27:00,
2013-02-28 02:32:00,44.7,38.6,29.60,SW,231,1.0,1.0,79,0.00,,---,0.00,VWS V14.01,2013-02-28 07:32:00,
2013-02-28 02:37:00,44.6,38.5,29.61,SW,225,0.0,2.0,79,0.00,,---,0.00,VWS V14.01,2013-02-28 07:37:00,
2013-02-28 02:42:00,44.6,38.8,29.60,WSW,246,1.0,2.0,80,0.00,,---,0.00,VWS V14.01,2013-02-28 07:42:00,
2013-02-28 02:47:00,44.6,38.8,29.60,WSW,246,1.0,2.0,80,0.00,,---,0.00,VWS V14.01,2013-02-28 07:47:00,
2013-02-28 02:52:00,44.7,38.9,29.61,SW,224,1.0,2.0,80,0.00,,---,0.00,VWS V14.01,2013-02-28 07:52:00,
2013-02-28 02:57:00,44.5,38.7,29.61,South,177,1.0,2.0,80,0.00,,---,0.00,VWS V14.01,2013-02-28 07:57:00,
2013-02-28 03:02:00,44.3,38.5,29.61,SW,226,0.0,2.0,80,0.00,,---,0.00,VWS V14.01,2013-02-28 08:02:00,
2013-02-28 03:07:00,44.2,38.8,29.61,SSW,193,0.0,2.0,81,0.00,,---,0.00,VWS V14.01,2013-02-28 08:07:00,
2013-02-28 03:12:00,44.1,38.7,29.61,South,174,2.0,2.0,81,0.00,,---,0.00,VWS V14.01,2013-02-28 08:12:00,
2013-02-28 03:17:00,44.0,38.5,29.61,SSW,204,0.0,1.0,81,0.00,,---,0.00,VWS V14.01,2013-02-28 08:17:00,
2013-02-28 03:22:00,44.0,38.5,29.61,SSE,148,2.0,2.0,81,0.00,,---,0.00,VWS V14.01,2013-02-28 08:22:00,
2013-02-28 03:27:00,44.0,38.5,29.61,SSE,150,1.0,3.0,81,0.00,,---,0.00,VWS V14.01,2013-02-28 08:27:00,
2013-02-28 03:32:00,43.9,38.8,29.61,South,181,0.0,2.0,82,0.00,,---,0.00,VWS V14.01,2013-02-28 08:32:00,
2013-02-28 03:37:00,43.9,38.8,29.61,South,173,1.0,4.0,82,0.00,,---,0.00,VWS V14.01,2013-02-28 08:37:00,
2013-02-28 03:42:00,43.9,39.1,29.60,SSE,158,2.0,4.0,83,0.00,,---,0.00,VWS V14.01,2013-02-28 08:42:00,
2013-02-28 03:47:00,43.7,38.9,29.61,SE,138,3.0,4.0,83,0.00,,---,0.00,VWS V14.01,2013-02-28 08:47:00,
2013-02-28 03:52:00,43.5,39.0,29.61,SE,139,3.0,4.0,84,0.00,,---,0.00,VWS V14.01,2013-02-28 08:52:00,
2013-02-28 03:57:00,43.5,39.0,29.61,SSE,152,1.0,4.0,84,0.00,,---,0.00,VWS V14.01,2013-02-28 08:57:00,
2013-02-28 04:02:00,43.4,39.2,29.61,South,170,1.0,2.0,85,0.00,,---,0.00,VWS V14.01,2013-02-28 09:02:00,
2013-02-28 04:07:00,43.5,39.3,29.61,South,170,0.0,2.0,85,0.00,,---,0.00,VWS V14.01,2013-02-28 09:07:00,
2013-02-28 04:12:00,43.5,39.3,29.61,SSW,205,1.0,2.0,85,0.00,,---,0.00,VWS V14.01,2013-02-28 09:12:00,
2013-02-28 04:17:00,43.4,39.2,29.61,South,170,2.0,2.0,85,0.00,,---,0.00,VWS V14.01,2013-02-28 09:17:00,
2013-02-28 04:22:00,43.5,39.3,29.61,SE,145,0.0,2.0,85,0.00,,---,0.00,VWS V14.01,2013-02-28 09:22:00,
2013-02-28 04:27:00,43.6,39.4,29.61,South,177,0.0,3.0,85,0.00,,---,0.00,VWS V14.01,2013-02-28 09:27:00,
2013-02-28 04:32:00,43.6,39.1,29.60,SSW,193,1.0,3.0,84,0.00,,---,0.00,VWS V14.01,2013-02-28 09:32:00,
2013-02-28 04:37:00,43.7,39.2,29.60,South,176,0.0,3.0,84,0.00,,---,0.00,VWS V14.01,2013-02-28 09:37:00,
2013-02-28 04:42:00,43.7,39.2,29.60,WSW,245,0.0,3.0,84,0.00,,---,0.00,VWS V14.01,2013-02-28 09:42:00,
2013-02-28 04:47:00,43.6,39.1,29.60,SW,220,0.0,2.0,84,0.00,,---,0.00,VWS V14.01,2013-02-28 09:47:00,
2013-02-28 04:52:00,43.7,38.9,29.60,SSW,194,2.0,2.0,83,0.00,,---,0.00,VWS V14.01,2013-02-28 09:52:00,
2013-02-28 04:57:00,43.8,38.7,29.60,SSW,203,2.0,2.0,82,0.00,,---,0.00,VWS V14.01,2013-02-28 09:57:00,
2013-02-28 05:02:00,43.9,38.8,29.60,SSW,197,1.0,2.0,82,0.00,,---,0.00,VWS V14.01,2013-02-28 10:02:00,
2013-02-28 05:07:00,43.9,38.5,29.60,West,276,2.0,2.0,81,0.00,,---,0.00,VWS V14.01,2013-02-28 10:07:00,
2013-02-28 05:12:00,44.1,38.7,29.60,SW,231,1.0,2.0,81,0.00,,---,0.00,VWS V14.01,2013-02-28 10:12:00,
2013-02-28 05:17:00,44.1,38.7,29.60,SW,236,1.0,2.0,81,0.00,,---,0.00,VWS V14.01,2013-02-28 10:17:00,
2013-02-28 05:22:00,44.2,38.8,29.60,WSW,243,3.0,3.0,81,0.00,,---,0.00,VWS V14.01,2013-02-28 10:22:00,
2013-02-28 05:27:00,44.2,38.4,29.60,SSW,208,1.0,3.0,80,0.00,,---,0.00,VWS V14.01,2013-02-28 10:27:00,
2013-02-28 05:32:00,44.2,38.4,29.60,WSW,248,1.0,4.0,80,0.00,,---,0.00,VWS V14.01,2013-02-28 10:32:00,
2013-02-28 05:37:00,44.2,38.4,29.60,SW,225,3.0,4.0,80,0.00,,---,0.00,VWS V14.01,2013-02-28 10:37:00,
2013-02-28 05:42:00,44.3,38.5,29.60,WSW,245,1.0,4.0,80,0.00,,---,0.00,VWS V14.01,2013-02-28 10:42:00,
2013-02-28 05:47:00,44.3,38.5,29.60,WSW,240,1.0,2.0,80,0.00,,---,0.00,VWS V14.01,2013-02-28 10:47:00,
2013-02-28 05:52:00,44.3,38.2,29.60,West,259,0.0,3.0,79,0.00,,---,0.00,VWS V14.01,2013-02-28 10:52:00,
2013-02-28 05:57:00,44.4,38.0,29.60,West,281,2.0,4.0,78,0.00,,---,0.00,VWS V14.01,2013-02-28 10:57:00,
2013-02-28 06:02:00,44.5,38.1,29.60,WSW,256,2.0,4.0,78,0.00,,---,0.00,VWS V14.01,2013-02-28 11:02:00,
2013-02-28 06:07:00,44.5,38.1,29.60,SSW,201,2.0,4.0,78,0.00,,---,0.00,VWS V14.01,2013-02-28 11:07:00,
2013-02-28 06:12:00,44.5,38.1,29.60,WSW,242,1.0,4.0,78,0.00,,---,0.00,VWS V14.01,2013-02-28 11:12:00,
2013-02-28 06:17:00,44.5,38.1,29.60,West,271,2.0,3.0,78,0.00,,---,0.00,VWS V14.01,2013-02-28 11:17:00,
2013-02-28 06:22:00,44.5,38.1,29.61,West,262,1.0,6.0,78,0.00,,---,0.00,VWS V14.01,2013-02-28 11:22:00,
2013-02-28 06:27:00,44.4,38.0,29.61,West,263,1.0,6.0,78,0.00,,---,0.00,VWS V14.01,2013-02-28 11:27:00,
2013-02-28 06:32:00,44.4,37.7,29.61,West,263,1.0,4.0,77,0.00,,---,0.00,VWS V14.01,2013-02-28 11:32:00,
2013-02-28 06:37:00,44.4,37.7,29.61,SW,233,3.0,5.0,77,0.00,,---,0.00,VWS V14.01,2013-02-28 11:37:00,
2013-02-28 06:42:00,44.4,37.7,29.61,WSW,238,3.0,6.0,77,0.00,,---,0.00,VWS V14.01,2013-02-28 11:42:00,
2013-02-28 06:47:00,44.3,37.9,29.61,West,267,3.0,5.0,78,0.00,,---,0.00,VWS V14.01,2013-02-28 11:47:00,
2013-02-28 06:52:00,44.2,38.1,29.61,WSW,252,4.0,5.0,79,0.00,,---,0.00,VWS V14.01,2013-02-28 11:52:00,
2013-02-28 06:57:00,44.1,38.3,29.62,West,260,3.0,5.0,80,0.00,,---,0.00,VWS V14.01,2013-02-28 11:57:00,
2013-02-28 07:02:00,44.0,38.2,29.62,WSW,249,2.0,4.0,80,0.00,,---,0.00,VWS V14.01,2013-02-28 12:02:00,
2013-02-28 07:07:00,44.0,38.2,29.61,West,266,3.0,4.0,80,0.00,,---,0.00,VWS V14.01,2013-02-28 12:07:00,
2013-02-28 07:12:00,43.9,38.5,29.61,SW,227,1.0,4.0,81,0.00,,---,0.00,VWS V14.01,2013-02-28 12:12:00,
2013-02-28 07:17:00,43.9,38.5,29.61,WSW,240,1.0,4.0,81,0.00,,---,0.00,VWS V14.01,2013-02-28 12:17:00,
2013-02-28 07:22:00,43.9,38.8,29.61,WSW,240,4.0,4.0,82,0.00,,---,0.00,VWS V14.01,2013-02-28 12:22:00,
2013-02-28 07:27:00,43.9,38.5,29.61,West,276,1.0,4.0,81,0.00,,---,0.00,VWS V14.01,2013-02-28 12:27:00,
2013-02-28 07:32:00,44.0,38.9,29.61,SSW,195,2.0,2.0,82,0.00,,---,0.00,VWS V14.01,2013-02-28 12:32:00,
2013-02-28 07:37:00,44.1,38.7,29.61,WSW,247,0.0,3.0,81,0.00,,---,0.00,VWS V14.01,2013-02-28 12:37:00,
2013-02-28 07:42:00,44.2,38.8,29.62,SW,214,1.0,3.0,81,0.00,,---,0.00,VWS V14.01,2013-02-28 12:42:00,
2013-02-28 07:47:00,44.3,38.2,29.62,West,279,2.0,3.0,79,0.00,,---,0.00,VWS V14.01,2013-02-28 12:47:00,
2013-02-28 07:52:00,44.4,38.3,29.62,WSW,245,3.0,4.0,79,0.00,,---,0.00,VWS V14.01,2013-02-28 12:52:00,
2013-02-28 07:57:00,44.5,38.4,29.62,SW,222,2.0,5.0,79,0.00,,---,0.00,VWS V14.01,2013-02-28 12:57:00,
2013-02-28 08:02:00,44.7,38.3,29.61,West,270,3.0,5.0,78,0.00,,---,0.00,VWS V14.01,2013-02-28 13:02:00,
2013-02-28 08:07:00,44.8,38.4,29.62,SW,235,4.0,6.0,78,0.00,,---,0.00,VWS V14.01,2013-02-28 13:07:00,
2013-02-28 08:12:00,44.8,38.0,29.62,South,186,2.0,6.0,77,0.00,,---,0.00,VWS V14.01,2013-02-28 13:12:00,
2013-02-28 08:17:00,44.9,38.1,29.62,West,271,1.0,6.0,77,0.00,,---,0.00,VWS V14.01,2013-02-28 13:17:00,
2013-02-28 08:22:00,44.9,38.1,29.62,West,271,3.0,6.0,77,0.00,,---,0.00,VWS V14.01,2013-02-28 13:22:00,
2013-02-28 08:27:00,44.9,38.1,29.62,West,280,2.0,6.0,77,0.00,,---,0.00,VWS V14.01,2013-02-28 13:27:00,
2013-02-28 08:32:00,44.9,38.1,29.62,SSW,210,4.0,5.0,77,0.00,,---,0.00,VWS V14.01,2013-02-28 13:32:00,
2013-02-28 08:37:00,44.9,38.1,29.62,WSW,242,1.0,5.0,77,0.00,,---,0.00,VWS V14.01,2013-02-28 13:37:00,
2013-02-28 08:42:00,45.0,38.2,29.62,WSW,238,4.0,5.0,77,0.00,,---,0.00,VWS V14.01,2013-02-28 13:42:00,
2013-02-28 08:47:00,44.9,38.1,29.62,West,269,2.0,7.0,77,0.00,,---,0.00,VWS V14.01,2013-02-28 13:47:00,
2013-02-28 08:52:00,44.9,38.1,29.62,West,280,1.0,7.0,77,0.00,,---,0.00,VWS V14.01,2013-02-28 13:52:00,
2013-02-28 08:57:00,44.8,38.0,29.62,WNW,291,0.0,7.0,77,0.00,,---,0.00,VWS V14.01,2013-02-28 13:57:00,
2013-02-28 09:02:00,44.7,38.3,29.62,West,281,3.0,5.0,78,0.00,,---,0.00,VWS V14.01,2013-02-28 14:02:00,
2013-02-28 09:07:00,44.5,38.1,29.62,WNW,295,3.0,6.0,78,0.00,,---,0.00,VWS V14.01,2013-02-28 14:07:00,
2013-02-28 09:12:00,44.3,38.2,29.62,West,271,3.0,6.0,79,0.00,,---,0.00,VWS V14.01,2013-02-28 14:12:00,
2013-02-28 09:17:00,44.2,38.4,29.62,WSW,249,2.0,3.0,80,0.00,,---,0.00,VWS V14.01,2013-02-28 14:17:00,
2013-02-28 09:22:00,44.1,38.7,29.62,SW,226,6.0,6.0,81,0.01,,---,0.01,VWS V14.01,2013-02-28 14:22:00,
2013-02-28 09:27:00,43.9,38.5,29.62,SW,229,6.0,7.0,81,0.01,,---,0.01,VWS V14.01,2013-02-28 14:27:00,
2013-02-28 09:32:00,43.9,38.5,29.62,WSW,240,3.0,5.0,81,0.01,,---,0.01,VWS V14.01,2013-02-28 14:32:00,
2013-02-28 09:37:00,44.0,38.5,29.62,WSW,252,4.0,5.0,81,0.01,,---,0.01,VWS V14.01,2013-02-28 14:37:00,
2013-02-28 09:42:00,44.1,38.3,29.62,WSW,241,2.0,6.0,80,0.01,,---,0.01,VWS V14.01,2013-02-28 14:42:00,
2013-02-28 09:47:00,44.2,38.1,29.61,WSW,252,4.0,8.0,79,0.01,,---,0.01,VWS V14.01,2013-02-28 14:47:00,
2013-02-28 09:52:00,44.3,38.2,29.62,West,261,4.0,8.0,79,0.01,,---,0.01,VWS V14.01,2013-02-28 14:52:00,
2013-02-28 09:57:00,44.4,38.3,29.61,WSW,242,2.0,8.0,79,0.01,,---,0.01,VWS V14.01,2013-02-28 14:57:00,
2013-02-28 10:02:00,44.5,38.4,29.61,WSW,246,3.0,4.0,79,0.01,,---,0.01,VWS V14.01,2013-02-28 15:02:00,
2013-02-28 10:07:00,44.8,38.4,29.61,WNW,295,2.0,6.0,78,0.01,,---,0.01,VWS V14.01,2013-02-28 15:07:00,
2013-02-28 10:12:00,45.2,38.8,29.61,SW,225,6.0,6.0,78,0.01,,---,0.01,VWS V14.01,2013-02-28 15:12:00,
2013-02-28 10:17:00,45.6,38.8,29.60,WSW,250,6.0,6.0,77,0.01,,---,0.01,VWS V14.01,2013-02-28 15:17:00,
2013-02-28 10:22:00,45.8,38.3,29.60,NW,307,6.0,7.0,75,0.01,,---,0.01,VWS V14.01,2013-02-28 15:22:00,
2013-02-28 10:27:00,45.9,38.1,29.60,WNW,283,3.0,8.0,74,0.01,,---,0.01,VWS V14.01,2013-02-28 15:27:00,
2013-02-28 10:32:00,46.4,38.2,29.60,NNW,329,9.0,9.0,73,0.00,,---,0.01,VWS V14.01,2013-02-28 15:32:00,
2013-02-28 10:37:00,46.2,37.3,29.59,NW,308,6.0,9.0,71,0.00,,---,0.01,VWS V14.01,2013-02-28 15:37:00,
2013-02-28 10:42:00,46.0,37.5,29.59,WNW,302,1.0,9.0,72,0.00,,---,0.01,VWS V14.01,2013-02-28 15:42:00,
2013-02-28 10:47:00,45.9,37.0,29.59,WNW,283,4.0,7.0,71,0.00,,---,0.01,VWS V14.01,2013-02-28 15:47:00,
2013-02-28 10:53:00,46.1,37.6,29.59,WNW,285,4.0,7.0,72,0.00,,---,0.01,VWS V14.01,2013-02-28 15:53:00,
2013-02-28 10:58:00,46.6,36.2,29.59,WNW,301,2.0,7.0,67,0.00,,---,0.01,VWS V14.01,2013-02-28 15:58:00,
2013-02-28 11:03:00,46.9,36.5,29.59,WSW,242,4.0,7.0,67,0.00,,---,0.01,VWS V14.01,2013-02-28 16:03:00,
2013-02-28 11:08:00,47.2,36.0,29.59,WNW,290,3.0,9.0,65,0.00,,---,0.01,VWS V14.01,2013-02-28 16:08:00,
2013-02-28 11:13:00,47.5,36.3,29.58,WNW,295,7.0,9.0,65,0.00,,---,0.01,VWS V14.01,2013-02-28 16:13:00,
2013-02-28 11:18:00,47.5,35.5,29.58,WNW,303,6.0,7.0,63,0.00,,---,0.01,VWS V14.01,2013-02-28 16:18:00,
2013-02-28 11:23:00,47.5,35.5,29.58,NW,307,3.0,7.0,63,0.00,,---,0.01,VWS V14.01,2013-02-28 16:23:00,
2013-02-28 11:28:00,48.2,36.6,29.58,WNW,297,2.0,7.0,64,0.00,,---,0.01,VWS V14.01,2013-02-28 16:28:00,
2013-02-28 11:33:00,48.6,35.4,29.58,West,267,2.0,7.0,60,0.00,,---,0.01,VWS V14.01,2013-02-28 16:33:00,
2013-02-28 11:38:00,48.4,35.2,29.57,NW,324,3.0,7.0,60,0.00,,---,0.01,VWS V14.01,2013-02-28 16:38:00,
2013-02-28 11:43:00,48.3,35.1,29.57,West,267,4.0,7.0,60,0.00,,---,0.01,VWS V14.01,2013-02-28 16:43:00,
2013-02-28 11:48:00,48.3,34.7,29.57,WNW,290,1.0,7.0,59,0.00,,---,0.01,VWS V14.01,2013-02-28 16:48:00,
2013-02-28 11:53:00,48.6,35.4,29.57,West,280,2.0,7.0,60,0.00,,---,0.01,VWS V14.01,2013-02-28 16:53:00,
2013-02-28 11:58:00,49.1,34.5,29.57,WNW,295,5.0,9.0,57,0.00,,---,0.01,VWS V14.01,2013-02-28 16:58:00,
2013-02-28 12:03:00,48.8,34.3,29.57,NNW,335,3.0,7.0,57,0.00,,---,0.01,VWS V14.01,2013-02-28 17:03:00,
2013-02-28 12:08:00,48.7,34.2,29.56,NNW,333,3.0,7.0,57,0.00,,---,0.01,VWS V14.01,2013-02-28 17:08:00,
2013-02-28 12:13:00,49.3,33.8,29.56,NW,309,3.0,8.0,55,0.00,,---,0.01,VWS V14.01,2013-02-28 17:13:00,
2013-02-28 12:18:00,49.2,33.7,29.56,NW,316,6.0,10.0,55,0.00,,---,0.01,VWS V14.01,2013-02-28 17:18:00,
2013-02-28 12:23:00,49.8,33.8,29.56,NNW,338,4.0,10.0,54,0.00,,---,0.01,VWS V14.01,2013-02-28 17:23:00,
2013-02-28 12:28:00,50.3,33.8,29.56,NW,309,5.0,10.0,53,0.00,,---,0.01,VWS V14.01,2013-02-28 17:28:00,
2013-02-28 12:33:00,49.4,33.5,29.56,WNW,298,3.0,9.0,54,0.00,,---,0.01,VWS V14.01,2013-02-28 17:33:00,
2013-02-28 12:38:00,49.5,34.0,29.56,SW,232,6.0,9.0,55,0.00,,---,0.01,VWS V14.01,2013-02-28 17:38:00,
2013-02-28 12:43:00,49.6,33.7,29.55,West,278,6.0,9.0,54,0.00,,---,0.01,VWS V14.01,2013-02-28 17:43:00,
2013-02-28 12:48:00,49.4,33.0,29.55,West,267,5.0,6.0,53,0.00,,---,0.01,VWS V14.01,2013-02-28 17:48:00,
2013-02-28 12:53:00,49.3,32.9,29.55,WSW,242,9.0,9.0,53,0.00,,---,0.01,VWS V14.01,2013-02-28 17:53:00,
2013-02-28 12:58:00,49.3,32.9,29.55,WSW,240,5.0,9.0,53,0.00,,---,0.01,VWS V14.01,2013-02-28 17:58:00,
2013-02-28 13:03:00,49.2,33.7,29.55,WSW,251,2.0,8.0,55,0.00,,---,0.01,VWS V14.01,2013-02-28 18:03:00,
2013-02-28 13:08:00,49.4,33.5,29.55,NW,326,4.0,9.0,54,0.00,,---,0.01,VWS V14.01,2013-02-28 18:08:00,
2013-02-28 13:13:00,49.1,33.2,29.55,WNW,284,8.0,9.0,54,0.00,,---,0.01,VWS V14.01,2013-02-28 18:13:00,
2013-02-28 13:18:00,48.8,33.4,29.55,NNW,335,2.0,8.0,55,0.00,,---,0.01,VWS V14.01,2013-02-28 18:18:00,
2013-02-28 13:23:00,49.2,33.7,29.55,WNW,297,3.0,8.0,55,0.00,,---,0.01,VWS V14.01,2013-02-28 18:23:00,
2013-02-28 13:28:00,49.2,33.3,29.55,SSW,205,1.0,8.0,54,0.00,,---,0.01,VWS V14.01,2013-02-28 18:28:00,
2013-02-28 13:33:00,49.0,33.5,29.55,West,267,3.0,5.0,55,0.00,,---,0.01,VWS V14.01,2013-02-28 18:33:00,
2013-02-28 13:38:00,49.1,33.2,29.55,West,278,3.0,6.0,54,0.00,,---,0.01,VWS V14.01,2013-02-28 18:38:00,
2013-02-28 13:43:00,49.0,33.5,29.55,West,279,2.0,6.0,55,0.00,,---,0.01,VWS V14.01,2013-02-28 18:43:00,
2013-02-28 13:48:00,49.2,34.2,29.55,WSW,252,2.0,5.0,56,0.00,,---,0.01,VWS V14.01,2013-02-28 18:48:00,
2013-02-28 13:53:00,49.2,33.7,29.55,SW,231,1.0,6.0,55,0.00,,---,0.01,VWS V14.01,2013-02-28 18:53:00,
2013-02-28 13:58:00,49.1,33.2,29.54,SW,231,1.0,6.0,54,0.00,,---,0.01,VWS V14.01,2013-02-28 18:58:00,
2013-02-28 14:03:00,49.2,33.7,29.54,NW,316,2.0,5.0,55,0.00,,---,0.01,VWS V14.01,2013-02-28 19:03:00,
2013-02-28 14:08:00,49.3,33.8,29.54,WNW,302,7.0,7.0,55,0.00,,---,0.01,VWS V14.01,2013-02-28 19:08:00,
2013-02-28 14:13:00,49.0,33.5,29.54,West,269,6.0,9.0,55,0.00,,---,0.01,VWS V14.01,2013-02-28 19:13:00,
2013-02-28 14:18:00,48.8,33.4,29.54,West,262,3.0,8.0,55,0.00,,---,0.01,VWS V14.01,2013-02-28 19:18:00,
2013-02-28 14:23:00,48.7,32.8,29.55,WSW,250,3.0,8.0,54,0.00,,---,0.01,VWS V14.01,2013-02-28 19:23:00,
2013-02-28 14:28:00,48.6,33.2,29.55,WSW,240,3.0,11.0,55,0.00,,---,0.01,VWS V14.01,2013-02-28 19:28:00,
2013-02-28 14:33:00,48.7,33.3,29.55,West,278,3.0,7.0,55,0.00,,---,0.01,VWS V14.01,2013-02-28 19:33:00,
2013-02-28 14:38:00,48.7,33.3,29.55,NW,316,5.0,8.0,55,0.00,,---,0.01,VWS V14.01,2013-02-28 19:38:00,
2013-02-28 14:43:00,48.5,32.6,29.55,WNW,285,2.0,9.0,54,0.00,,---,0.01,VWS V14.01,2013-02-28 19:43:00,
2013-02-28 14:48:00,48.6,33.2,29.55,WNW,290,5.0,8.0,55,0.00,,---,0.01,VWS V14.01,2013-02-28 19:48:00,
2013-02-28 14:53:00,48.5,32.6,29.55,WNW,283,8.0,9.0,54,0.00,,---,0.01,VWS V14.01,2013-02-28 19:53:00,
2013-02-28 14:58:00,48.3,32.9,29.54,WNW,293,2.0,11.0,55,0.00,,---,0.01,VWS V14.01,2013-02-28 19:58:00,
2013-02-28 15:03:00,48.2,32.8,29.55,West,267,11.0,11.0,55,0.00,,---,0.01,VWS V14.01,2013-02-28 20:03:00,
2013-02-28 15:08:00,48.0,32.6,29.54,WSW,252,6.0,13.0,55,0.00,,---,0.01,VWS V14.01,2013-02-28 20:08:00,
2013-02-28 15:13:00,47.9,32.5,29.55,WSW,239,6.0,13.0,55,0.00,,---,0.01,VWS V14.01,2013-02-28 20:13:00,
2013-02-28 15:18:00,48.0,32.6,29.55,NW,313,8.0,11.0,55,0.00,,---,0.01,VWS V14.01,2013-02-28 20:18:00,
2013-02-28 15:23:00,47.9,32.1,29.54,West,269,3.0,11.0,54,0.00,,---,0.01,VWS V14.01,2013-02-28 20:23:00,
2013-02-28 15:28:00,47.9,32.5,29.54,WNW,288,7.0,11.0,55,0.00,,---,0.01,VWS V14.01,2013-02-28 20:28:00,
2013-02-28 15:33:00,47.9,32.5,29.55,NW,315,4.0,11.0,55,0.00,,---,0.01,VWS V14.01,2013-02-28 20:33:00,
2013-02-28 15:38:00,47.6,32.2,29.55,West,281,7.0,11.0,55,0.00,,---,0.01,VWS V14.01,2013-02-28 20:38:00,
2013-02-28 15:43:00,47.5,32.6,29.54,WNW,295,13.0,13.0,56,0.00,,---,0.01,VWS V14.01,2013-02-28 20:43:00,
2013-02-28 15:48:00,47.3,32.4,29.54,NW,316,8.0,14.0,56,0.00,,---,0.01,VWS V14.01,2013-02-28 20:48:00,
2013-02-28 15:53:00,47.3,32.8,29.54,West,273,6.0,14.0,57,0.00,,---,0.01,VWS V14.01,2013-02-28 20:53:00,
2013-02-28 15:58:00,47.2,32.8,29.54,WNW,295,4.0,14.0,57,0.00,,---,0.01,VWS V14.01,2013-02-28 20:58:00,
2013-02-28 16:03:00,47.2,32.8,29.54,West,270,10.0,14.0,57,0.00,,---,0.01,VWS V14.01,2013-02-28 21:03:00,
2013-02-28 16:08:00,47.0,33.4,29.55,West,274,5.0,14.0,59,0.00,,---,0.01,VWS V14.01,2013-02-28 21:08:00,
2013-02-28 16:13:00,46.8,33.2,29.54,NW,311,7.0,14.0,59,0.00,,---,0.01,VWS V14.01,2013-02-28 21:13:00,
2013-02-28 16:18:00,46.9,33.3,29.55,WNW,303,6.0,8.0,59,0.00,,---,0.01,VWS V14.01,2013-02-28 21:18:00,
2013-02-28 16:23:00,46.6,32.6,29.55,WSW,255,8.0,10.0,58,0.00,,---,0.01,VWS V14.01,2013-02-28 21:23:00,
2013-02-28 16:28:00,46.5,32.5,29.55,WSW,238,2.0,10.0,58,0.00,,---,0.01,VWS V14.01,2013-02-28 21:28:00,
2013-02-28 16:33:00,46.4,32.4,29.55,NW,314,9.0,10.0,58,0.00,,---,0.01,VWS V14.01,2013-02-28 21:33:00,
2013-02-28 16:38:00,46.3,32.3,29.55,WNW,295,4.0,11.0,58,0.00,,---,0.01,VWS V14.01,2013-02-28 21:38:00,
2013-02-28 16:43:00,46.1,32.2,29.55,NW,321,6.0,12.0,58,0.00,,---,0.01,VWS V14.01,2013-02-28 21:43:00,
2013-02-28 16:48:00,46.2,32.7,29.55,WNW,303,6.0,10.0,59,0.00,,---,0.01,VWS V14.01,2013-02-28 21:48:00,
2013-02-28 16:53:00,46.1,32.6,29.55,NW,306,7.0,10.0,59,0.00,,---,0.01,VWS V14.01,2013-02-28 21:53:00,
2013-02-28 16:58:00,46.1,32.6,29.55,WNW,298,4.0,10.0,59,0.00,,---,0.01,VWS V14.01,2013-02-28 21:58:00,
2013-02-28 17:03:00,46.0,32.5,29.55,West,280,7.0,10.0,59,0.00,,---,0.01,VWS V14.01,2013-02-28 22:03:00,
2013-02-28 17:08:00,45.9,32.4,29.55,WNW,298,4.0,10.0,59,0.00,,---,0.01,VWS V14.01,2013-02-28 22:08:00,
2013-02-28 17:13:00,45.9,32.4,29.55,WNW,290,7.0,11.0,59,0.00,,---,0.01,VWS V14.01,2013-02-28 22:13:00,
2013-02-28 17:18:00,45.9,32.4,29.55,WNW,292,3.0,9.0,59,0.00,,---,0.01,VWS V14.01,2013-02-28 22:18:00,
2013-02-28 17:23:00,45.8,32.3,29.55,NW,323,4.0,12.0,59,0.00,,---,0.01,VWS V14.01,2013-02-28 22:23:00,
2013-02-28 17:28:00,45.8,32.3,29.55,NW,308,4.0,12.0,59,0.00,,---,0.01,VWS V14.01,2013-02-28 22:28:00,
2013-02-28 17:33:00,45.8,31.9,29.56,NW,311,5.0,11.0,58,0.00,,---,0.01,VWS V14.01,2013-02-28 22:33:00,
2013-02-28 17:38:00,45.7,30.9,29.56,WSW,258,5.0,12.0,56,0.00,,---,0.01,VWS V14.01,2013-02-28 22:38:00,
2013-02-28 17:43:00,45.6,31.3,29.56,WNW,290,4.0,12.0,57,0.00,,---,0.01,VWS V14.01,2013-02-28 22:43:00,
2013-02-28 17:48:00,45.6,29.9,29.56,WNW,284,5.0,8.0,54,0.00,,---,0.01,VWS V14.01,2013-02-28 22:48:00,
2013-02-28 17:53:00,45.6,29.9,29.56,WNW,294,6.0,10.0,54,0.00,,---,0.01,VWS V14.01,2013-02-28 22:53:00,
2013-02-28 17:58:00,45.6,30.4,29.56,WNW,297,6.0,10.0,55,0.00,,---,0.01,VWS V14.01,2013-02-28 22:58:00,
2013-02-28 18:03:00,45.5,30.3,29.57,WNW,285,8.0,12.0,55,0.00,,---,0.01,VWS V14.01,2013-02-28 23:03:00,
2013-02-28 18:08:00,45.5,30.7,29.57,NNW,328,5.0,12.0,56,0.00,,---,0.01,VWS V14.01,2013-02-28 23:08:00,
2013-02-28 18:13:00,45.5,30.7,29.57,WNW,303,7.0,12.0,56,0.00,,---,0.01,VWS V14.01,2013-02-28 23:13:00,
2013-02-28 18:18:00,45.5,30.3,29.57,WNW,297,4.0,10.0,55,0.00,,---,0.01,VWS V14.01,2013-02-28 23:18:00,
2013-02-28 18:23:00,45.5,30.3,29.57,NW,307,4.0,10.0,55,0.00,,---,0.01,VWS V14.01,2013-02-28 23:23:00,
2013-02-28 18:28:00,45.6,30.8,29.57,WNW,290,5.0,10.0,56,0.00,,---,0.01,VWS V14.01,2013-02-28 23:28:00,
2013-02-28 18:33:00,45.5,30.7,29.57,West,278,4.0,9.0,56,0.00,,---,0.01,VWS V14.01,2013-02-28 23:33:00,
2013-02-28 18:38:00,45.5,30.7,29.57,WNW,282,3.0,9.0,56,0.00,,---,0.01,VWS V14.01,2013-02-28 23:38:00,
2013-02-28 18:43:00,45.6,30.8,29.58,WNW,291,3.0,9.0,56,0.00,,---,0.01,VWS V14.01,2013-02-28 23:43:00,
2013-02-28 18:48:00,45.5,30.7,29.58,West,276,5.0,8.0,56,0.00,,---,0.01,VWS V14.01,2013-02-28 23:48:00,
2013-02-28 18:53:00,45.5,31.2,29.58,WNW,295,6.0,8.0,57,0.00,,---,0.01,VWS V14.01,2013-02-28 23:53:00,
2013-02-28 18:58:00,45.5,30.7,29.58,West,269,7.0,9.0,56,0.00,,---,0.01,VWS V14.01,2013-02-28 23:58:00,
2013-02-28 19:03:00,45.5,31.2,29.58,WNW,302,4.0,8.0,57,0.00,,---,0.01,VWS V14.01,2013-03-01 00:03:00,
2013-02-28 19:08:00,45.5,31.2,29.58,West,271,10.0,10.0,57,0.00,,---,0.01,VWS V14.01,2013-03-01 00:08:00,
2013-02-28 19:13:00,45.4,30.2,29.58,WNW,302,3.0,12.0,55,0.00,,---,0.01,VWS V14.01,2013-03-01 00:13:00,
2013-02-28 19:18:00,45.4,29.7,29.58,WNW,300,6.0,10.0,54,0.00,,---,0.01,VWS V14.01,2013-03-01 00:18:00,
2013-02-28 19:23:00,45.3,29.6,29.58,NW,309,3.0,10.0,54,0.00,,---,0.01,VWS V14.01,2013-03-01 00:23:00,
2013-02-28 19:28:00,45.2,29.6,29.58,WSW,246,4.0,10.0,54,0.00,,---,0.01,VWS V14.01,2013-03-01 00:28:00,
2013-02-28 19:33:00,45.1,29.5,29.59,WNW,294,7.0,9.0,54,0.00,,---,0.01,VWS V14.01,2013-03-01 00:33:00,
2013-02-28 19:38:00,44.9,29.3,29.59,WNW,294,6.0,9.0,54,0.00,,---,0.01,VWS V14.01,2013-03-01 00:38:00,
2013-02-28 19:43:00,44.8,29.2,29.58,NW,313,9.0,11.0,54,0.00,,---,0.01,VWS V14.01,2013-03-01 00:43:00,
2013-02-28 19:48:00,44.7,29.1,29.59,NW,320,5.0,11.0,54,0.00,,---,0.01,VWS V14.01,2013-03-01 00:48:00,
2013-02-28 19:53:00,44.6,29.0,29.59,West,269,8.0,11.0,54,0.00,,---,0.01,VWS V14.01,2013-03-01 00:53:00,
2013-02-28 19:58:00,44.5,28.9,29.59,West,278,6.0,12.0,54,0.00,,---,0.01,VWS V14.01,2013-03-01 00:58:00,
2013-02-28 20:03:00,44.4,28.8,29.59,NW,320,3.0,12.0,54,0.00,,---,0.01,VWS V14.01,2013-03-01 01:03:00,
2013-02-28 20:08:00,44.4,29.3,29.59,WNW,298,8.0,12.0,55,0.00,,---,0.01,VWS V14.01,2013-03-01 01:08:00,
2013-02-28 20:13:00,44.3,29.2,29.59,NNW,331,5.0,13.0,55,0.00,,---,0.01,VWS V14.01,2013-03-01 01:13:00,
2013-02-28 20:18:00,44.2,29.1,29.59,NW,313,3.0,7.0,55,0.00,,---,0.01,VWS V14.01,2013-03-01 01:18:00,
2013-02-28 20:23:00,44.2,29.5,29.59,NW,326,7.0,7.0,56,0.00,,---,0.01,VWS V14.01,2013-03-01 01:23:00,
2013-02-28 20:28:00,44.0,29.3,29.59,WNW,294,5.0,10.0,56,0.00,,---,0.01,VWS V14.01,2013-03-01 01:28:00,
2013-02-28 20:33:00,43.9,29.7,29.59,NW,308,4.0,9.0,57,0.00,,---,0.01,VWS V14.01,2013-03-01 01:33:00,
2013-02-28 20:39:00,43.9,29.7,29.59,NW,308,5.0,10.0,57,0.00,,---,0.01,VWS V14.01,2013-03-01 01:39:00,
2013-02-28 20:44:00,43.8,29.6,29.59,WNW,290,4.0,11.0,57,0.00,,---,0.01,VWS V14.01,2013-03-01 01:44:00,
2013-02-28 20:49:00,43.8,30.0,29.59,NW,324,3.0,9.0,58,0.00,,---,0.01,VWS V14.01,2013-03-01 01:49:00,
2013-02-28 20:54:00,43.8,30.0,29.60,WNW,285,8.0,10.0,58,0.00,,---,0.01,VWS V14.01,2013-03-01 01:54:00,
2013-02-28 20:59:00,43.7,30.3,29.59,WNW,291,4.0,10.0,59,0.00,,---,0.01,VWS V14.01,2013-03-01 01:59:00,
2013-02-28 21:04:00,43.6,30.2,29.59,NW,308,4.0,14.0,59,0.00,,---,0.01,VWS V14.01,2013-03-01 02:04:00,
2013-02-28 21:09:00,43.6,30.6,29.59,WNW,300,7.0,14.0,60,0.00,,---,0.01,VWS V14.01,2013-03-01 02:09:00,
2013-02-28 21:14:00,43.6,31.0,29.60,NW,314,6.0,14.0,61,0.00,,---,0.01,VWS V14.01,2013-03-01 02:14:00,
2013-02-28 21:19:00,43.5,31.0,29.60,WNW,290,4.0,11.0,61,0.00,,---,0.01,VWS V14.01,2013-03-01 02:19:00,
2013-02-28 21:24:00,43.3,30.8,29.60,NNW,329,7.0,13.0,61,0.00,,---,0.01,VWS V14.01,2013-03-01 02:24:00,
2013-02-28 21:29:00,43.2,31.1,29.60,WNW,293,3.0,13.0,62,0.00,,---,0.01,VWS V14.01,2013-03-01 02:29:00,
2013-02-28 21:34:00,43.1,31.4,29.60,WSW,239,6.0,11.0,63,0.00,,---,0.01,VWS V14.01,2013-03-01 02:34:00,
2013-02-28 21:39:00,42.9,31.2,29.60,WNW,284,5.0,14.0,63,0.00,,---,0.01,VWS V14.01,2013-03-01 02:39:00,
2013-02-28 21:44:00,42.7,31.0,29.60,WNW,286,5.0,14.0,63,0.00,,---,0.01,VWS V14.01,2013-03-01 02:44:00,
2013-02-28 21:49:00,42.6,31.3,29.60,WNW,286,6.0,12.0,64,0.00,,---,0.01,VWS V14.01,2013-03-01 02:49:00,
2013-02-28 21:54:00,42.6,31.3,29.60,NW,319,4.0,12.0,64,0.00,,---,0.01,VWS V14.01,2013-03-01 02:54:00,
2013-02-28 21:59:00,42.5,31.6,29.60,WNW,303,4.0,7.0,65,0.00,,---,0.01,VWS V14.01,2013-03-01 02:59:00,
2013-02-28 22:04:00,42.4,31.5,29.60,NW,309,6.0,11.0,65,0.00,,---,0.01,VWS V14.01,2013-03-01 03:04:00,
2013-02-28 22:09:00,42.3,31.4,29.60,NW,309,6.0,11.0,65,0.00,,---,0.01,VWS V14.01,2013-03-01 03:09:00,
2013-02-28 22:14:00,42.3,31.8,29.60,WNW,291,9.0,10.0,66,0.00,,---,0.01,VWS V14.01,2013-03-01 03:14:00,
2013-02-28 22:19:00,42.1,31.6,29.60,WNW,294,6.0,11.0,66,0.00,,---,0.01,VWS V14.01,2013-03-01 03:19:00,
2013-02-28 22:24:00,42.0,31.9,29.60,West,276,5.0,11.0,67,0.00,,---,0.01,VWS V14.01,2013-03-01 03:24:00,
2013-02-28 22:29:00,42.0,31.9,29.60,West,271,5.0,10.0,67,0.00,,---,0.01,VWS V14.01,2013-03-01 03:29:00,
2013-02-28 22:34:00,41.9,31.8,29.60,West,280,7.0,10.0,67,0.00,,---,0.01,VWS V14.01,2013-03-01 03:34:00,
2013-02-28 22:39:00,41.6,31.8,29.60,WNW,302,7.0,13.0,68,0.00,,---,0.01,VWS V14.01,2013-03-01 03:39:00,
2013-02-28 22:44:00,41.5,31.7,29.60,WNW,298,11.0,14.0,68,0.00,,---,0.01,VWS V14.01,2013-03-01 03:44:00,
2013-02-28 22:49:00,41.4,32.0,29.60,WNW,296,3.0,14.0,69,0.00,,---,0.01,VWS V14.01,2013-03-01 03:49:00,
2013-02-28 22:54:00,41.4,32.0,29.60,NW,314,5.0,14.0,69,0.00,,---,0.01,VWS V14.01,2013-03-01 03:54:00,
2013-02-28 22:59:00,41.3,31.9,29.60,NW,307,2.0,4.0,69,0.00,,---,0.01,VWS V14.01,2013-03-01 03:59:00,
2013-02-28 23:04:00,41.2,32.2,29.60,NW,325,6.0,12.0,70,0.00,,---,0.01,VWS V14.01,2013-03-01 04:04:00,
2013-02-28 23:09:00,41.1,32.1,29.60,NW,309,10.0,12.0,70,0.00,,---,0.01,VWS V14.01,2013-03-01 04:09:00,
2013-02-28 23:14:00,40.9,31.9,29.60,WNW,293,5.0,5.0,70,0.00,,---,0.01,VWS V14.01,2013-03-01 04:14:00,
2013-02-28 23:19:00,40.8,32.1,29.60,NW,321,4.0,11.0,71,0.00,,---,0.01,VWS V14.01,2013-03-01 04:19:00,
2013-02-28 23:24:00,40.7,32.0,29.60,WNW,295,6.0,11.0,71,0.00,,---,0.01,VWS V14.01,2013-03-01 04:24:00,
2013-02-28 23:29:00,40.6,32.0,29.61,NW,305,10.0,10.0,71,0.00,,---,0.01,VWS V14.01,2013-03-01 04:29:00,
2013-02-28 23:34:00,40.6,32.0,29.60,WNW,302,10.0,11.0,71,0.00,,---,0.01,VWS V14.01,2013-03-01 04:34:00,
2013-02-28 23:39:00,40.4,31.8,29.60,WNW,293,8.0,13.0,71,0.00,,---,0.01,VWS V14.01,2013-03-01 04:39:00,
2013-02-28 23:44:00,40.4,32.0,29.60,NW,312,5.0,13.0,72,0.00,,,0.01,weatherlink.com 1.10,2013-03-01 04:44:00,
2013-02-28 23:45:00,40.3,32.0,29.60,NNW,328,8.0,13.0,72,0.00,,---,0.01,VWS V14.01,2013-03-01 04:45:00,
2013-02-28 23:49:00,40.3,32.0,29.60,NW,316,4.0,9.0,72,0.00,,---,0.01,VWS V14.01,2013-03-01 04:49:00,
2013-02-28 23:54:00,40.2,31.9,29.60,West,278,10.0,14.0,72,0.00,,---,0.01,VWS V14.01,2013-03-01 04:54:00,
2013-02-28 23:59:00,40.1,31.8,29.60,NW,309,8.0,12.0,72,0.00,,---,0.00,VWS V14.01,2013-03-01 04:59:00,